x

St. Clair Shores, Mi (clsm4) Weather Station

5:50pm - Fri 24th Mar 2017 All times are CDT. -5 hours from GMT.

  • Wind
    11mph, 17mph gusts
  • Air Temp 73°f
  • Sea Pressure 1013.5mb
  • St. Clair Shores, Mi
  • St. Clair Shores, Mi

More Historic Weather Station data

Upgrade to MSW Pro to gain access to the past 30 days of data for over 8000 Wavebouys and Weather Stations around the globe.

Join Pro

Comparision Forecast

View Surf forecast
   
Fri 03/24 5:50pm 11 17 mph 1013.5mb 73f
5:40pm 10 20 mph 1013.5mb 73f
5:30pm 13 18 mph 1013.2mb 74f
5:20pm 10 18 mph 1013.2mb 74f
5:10pm 10 22 mph 1013.2mb 74f
5:00pm 9 23 mph 1013.2mb 73f
4:50pm 11 18 mph 1013.2mb 73f
4:40pm 13 21 mph 1013.2mb 73f
4:30pm 11 21 mph 1013.5mb 72f
4:20pm 14 18 mph 1013.2mb 72f
4:10pm 13 23 mph 1013.2mb 72f
4:00pm 17 25 mph 1013.2mb 72f
3:50pm 20 29 mph 1013.2mb 72f
3:48pm 18 29 mph 1012.9mb 71f
3:40pm 15 25 mph 1013.2mb 71f
3:30pm 16 24 mph 1013.5mb 71f
3:20pm 16 23 mph 1013.2mb 71f
3:10pm 18 23 mph 1013.5mb 70f
3:00pm 17 24 mph 1013.5mb 70f
2:50pm 17 22 mph 1013.5mb 70f
2:40pm 16 25 mph 1013.9mb 69f
2:30pm 16 22 mph 1013.9mb 69f
2:20pm 15 26 mph 1013.9mb 68f
2:10pm 13 21 mph 1014.2mb 68f
2:00pm 18 26 mph 1013.9mb 67f
1:50pm 14 24 mph 1014.2mb 67f
1:40pm 17 26 mph 1014.6mb 67f
1:30pm 20 25 mph 1014.6mb 66f
1:20pm 17 28 mph 1014.6mb 66f
1:10pm 17 29 mph 1014.9mb 65f
1:01pm 15 29 mph 1014.9mb 64f
1:00pm 15 29 mph 1015.2mb 64f
12:50pm 17 25 mph 1014.6mb 64f
12:40pm 17 25 mph 1014.9mb 63f
12:30pm 17 23 mph 1014.9mb 63f
12:20pm 11 22 mph 1015.2mb 63f
12:10pm 15 25 mph 1015.2mb 63f
12:00pm 17 28 mph 1015.2mb 62f
11:50am 17 31 mph 1015.6mb 61f
11:40am 17 29 mph 1015.6mb 61f
11:33am 15 29 mph 1015.6mb 60f
11:30am 14 26 mph 1015.9mb 60f
11:20am 16 24 mph 1015.9mb 59f
11:10am 13 24 mph 1016.3mb 58f
11:00am 15 28 mph 1016.3mb 58f
10:50am 17 26 mph 1016.3mb 58f
10:40am 13 22 mph 1016.3mb 57f
10:30am 17 30 mph 1016.3mb 58f
10:20am 14
mph
1016.3mb 58f
10:10am 16 29 mph 1015.9mb 58f
10:00am 17 30 mph 1015.9mb 58f
9:50am 11 21 mph 1015.9mb 57f
9:40am 16 21 mph 1015.9mb 57f
9:30am 15 22 mph 1015.9mb 56f
9:20am 14 21 mph 1015.9mb 55f
9:10am 15 23 mph 1015.6mb 54f
9:00am 13 22 mph 1015.6mb 53f
8:50am 14 18 mph 1015.6mb 52f
8:40am 10 17 mph 1015.6mb 51f
8:30am 11 18 mph 1015.9mb 50f
8:20am 9 16 mph 1015.9mb 49f
8:10am 11 20 mph 1015.9mb 48f
8:00am 13 17 mph 1015.9mb 48f
7:50am 9 15 mph 1015.9mb 47f
7:40am 9 15 mph 1016.3mb 47f
7:30am 8 15 mph 1016.6mb 47f
7:20am 8 16 mph 1016.6mb 47f
7:10am 11 17 mph 1016.6mb 47f
7:00am 10 16 mph 1016.6mb 47f
6:50am 9 16 mph 1016.6mb 46f
6:40am 10 16 mph 1016.6mb 46f
6:30am 9 16 mph 1016.6mb 46f
6:20am 10 16 mph 1016.6mb 46f
6:10am 9 16 mph 1016.3mb 46f
6:00am 8 14 mph 1016.3mb 46f
5:50am 8 15 mph 1016.3mb 46f
5:40am 10 14 mph 1016.3mb 46f
5:30am 8 15 mph 1016.3mb 46f
5:20am 9 17 mph 1016.6mb 46f
5:10am 11 18 mph 1016.6mb 46f
5:00am 13 21 mph 1016.6mb 46f
4:50am 9 17 mph 1016.9mb 46f
4:40am 10 14 mph 1016.9mb 45f
4:30am 8 13 mph 1016.9mb 44f
4:20am 10 15 mph 1016.9mb 43f
4:10am 9 15 mph 1016.9mb 42f
4:00am 10 15 mph 1016.6mb 42f
3:50am 10 18 mph 1016.6mb 42f
3:40am 14 17 mph 1016.9mb 42f
3:30am 9 18 mph 1017.3mb 41f
3:20am 10 15 mph 1017.3mb 41f
3:10am 9 16 mph 1017.6mb 41f
3:00am 8 16 mph 1017.6mb 41f
2:50am 11 17 mph 1017.6mb 40f
2:40am 9 20 mph 1017.9mb 40f
2:30am 14 20 mph 1018.3mb 39f
2:20am 14 23 mph 1017.9mb 39f
2:10am 15 23 mph 1017.9mb 38f
2:00am 13 20 mph 1018.6mb 38f
1:50am 11 17 mph 1019mb 37f
1:40am 10 15 mph 1019mb 37f
1:30am 9 16 mph 1019.6mb 37f
1:20am 7 11 mph 1020.3mb 36f
1:10am 7 9 mph 1020.3mb 36f
1:00am 5 7 mph 1021.3mb 36f
12:50am 6 8 mph 1021.3mb 36f
12:40am 6 9 mph 1021mb 36f
12:30am 6 11 mph 1021.3mb 35f
12:20am 8 10 mph 1021mb 35f
12:10am 8 10 mph 1021mb 35f
12:00am 9 10 mph 1021.3mb 35f
Thu 03/23 11:50pm 5
mph
1022.4mb 35f
11:40pm 3 13 mph 1023mb 35f
11:30pm 5 7 mph 1023.4mb 35f
11:20pm 6 9 mph 1022.7mb 35f
11:10pm 7 9 mph 1022.7mb 35f
11:00pm 8 10 mph 1022.7mb 35f
10:50pm 9 11 mph 1022.7mb 35f
10:40pm 8 13 mph 1023mb 35f
10:30pm 11 13 mph 1023mb 35f
10:20pm 11 15 mph 1023mb 34f
10:10pm 11 13 mph 1023.7mb 34f
10:00pm 11 14 mph 1024mb 34f
9:50pm 11 14 mph 1024mb 34f
9:40pm 11 15 mph 1024mb 34f
9:30pm 13 16 mph 1024mb 34f
9:20pm 14 16 mph 1024mb 34f
9:10pm 14 17 mph 1024.4mb 34f
9:00pm 15 18 mph 1024mb 34f
8:50pm 15 18 mph 1024mb 34f
8:40pm 16 18 mph 1024mb 34f
8:30pm 17 18 mph 1024.4mb 34f
8:20pm 15 18 mph 1024.7mb 34f
8:10pm 15 18 mph 1025.1mb 34f
8:00pm 16 20 mph 1025.1mb 34f
7:50pm 15 17 mph 1025.1mb 35f
7:40pm 15 16 mph 1025.4mb 35f
7:30pm 14 16 mph 1025.7mb 35f
7:20pm 13 14 mph 1025.7mb 35f
7:10pm 11 14 mph 1025.7mb 35f
7:00pm 13 14 mph 1026.1mb 36f
6:50pm 10 14 mph 1026.4mb 36f
6:40pm 13 14 mph 1026.4mb 36f
6:30pm 11 14 mph 1026.4mb 36f
6:20pm 10 13 mph 1027.1mb 37f
6:10pm 10 11 mph 1027.4mb 37f
6:00pm 10 11 mph 1027.4mb 37f
5:50pm 10 13 mph 1027.4mb 37f
5:40pm 11 14 mph 1027.4mb 37f
5:30pm 10 13 mph 1027.1mb 37f
5:20pm 11 14 mph 1027.1mb 37f
5:10pm 13 14 mph 1027.1mb 37f
5:00pm 10 13 mph 1027.4mb 37f
4:50pm 10 13 mph 1027.8mb 36f
4:40pm 10 13 mph 1027.8mb 36f
4:30pm 10 13 mph 1027.8mb 36f
4:20pm 11 14 mph 1027.8mb 35f
4:10pm 10 13 mph 1028.1mb 35f
4:00pm 10 13 mph 1028.8mb 35f
3:50pm 10 11 mph 1029.1mb 35f
3:40pm 10 13 mph 1028.8mb 35f
3:30pm 13 14 mph 1028.8mb 34f
3:20pm 13 18 mph 1029.5mb 34f
3:10pm 11 13 mph 1029.5mb 34f
3:00pm 11 13 mph 1030.1mb 34f
2:50pm 10 11 mph 1030.5mb 34f
2:40pm 10 11 mph 1030.5mb 34f
2:30pm 10 14 mph 1030.8mb 34f
2:20pm 13 14 mph 1030.8mb 34f
2:10pm 10 13 mph 1031.2mb 34f
2:00pm 10 14 mph 1031.5mb 34f
1:50pm 13 14 mph 1031.5mb 33f
1:40pm 11 14 mph 1031.8mb 34f
1:30pm 11 14 mph 1032.2mb 33f
1:20pm 13 15 mph 1032.2mb 33f
1:10pm 13 14 mph 1032.5mb 33f
1:00pm 13 14 mph 1032.5mb 33f
12:50pm 13 15 mph 1032.8mb 33f
12:40pm 13 14 mph 1033.2mb 33f
12:30pm 11 15 mph 1033.2mb 33f
12:20pm 13 16 mph 1033.2mb 32f
12:10pm 14 16 mph 1033.2mb 32f
12:00pm 14 16 mph 1033.5mb 32f
11:50am 13 17 mph 1033.5mb 32f
11:40am 15 16 mph 1033.9mb 32f
11:30am 16 18 mph 1033.9mb 31f
11:20am 16 18 mph 1034.2mb 31f
11:10am 16 17 mph 1034.2mb 31f
11:00am 15 17 mph 1034.5mb 31f
10:50am 15 17 mph 1034.5mb 31f
10:40am 13 16 mph 1034.9mb 31f
10:30am 15 17 mph 1034.9mb 31f
10:20am 14 16 mph 1035.2mb 31f
10:10am 13 15 mph 1035.2mb 30f
10:00am 10 14 mph 1035.6mb 29f
9:50am 11 15 mph 1035.6mb 29f
9:40am 13 15 mph 1035.6mb 29f
9:30am 13 15 mph 1035.9mb 29f
9:20am 13 14 mph 1035.9mb 29f
9:10am 13 14 mph 1035.9mb 29f
9:00am 11 15 mph 1035.9mb 29f
8:50am 11 14 mph 1036.2mb 29f
8:40am 10 13 mph 1035.9mb 29f
8:30am 10 13 mph 1035.9mb 29f
8:20am 10 14 mph 1035.9mb 29f
8:10am 10 14 mph 1035.6mb 28f
8:00am 13 15 mph 1035.9mb 29f
7:50am 13 14 mph 1035.6mb 28f
7:40am 11 14 mph 1035.6mb 28f
7:30am 11 14 mph 1035.6mb 29f
7:20am 10 13 mph 1035.6mb 29f
7:10am 11 13 mph 1035.6mb 28f
7:00am 11 14 mph 1035.2mb 28f
6:50am 11 15 mph 1035.2mb 28f
6:40am 11 14 mph 1034.9mb 28f
6:30am 11 14 mph 1034.9mb 28f
6:20am 11 14 mph 1034.5mb 28f
6:10am 13 14 mph 1034.2mb 28f
6:00am 11 15 mph 1034.2mb 28f
5:50am 11 13 mph 1034.2mb 28f
5:40am 10 13 mph 1034.2mb 27f
5:30am 10 13 mph 1034.2mb 27f
5:20am 10 13 mph 1034.2mb 27f
5:10am 10 11 mph 1034.2mb 27f
5:00am 9 13 mph 1034.2mb 27f
4:50am 10 13 mph 1033.9mb 27f
4:40am 9 11 mph 1034.2mb 27f
4:30am 9 11 mph 1034.2mb 26f
4:20am 5 7 mph 1034.2mb 25f
4:10am 2 5 mph 1034.2mb 24f
4:00am 2 5 mph 1034.5mb 24f
3:50am 1 3 mph 1034.5mb 24f
3:40am 2 3 mph 1034.5mb 24f
3:30am 1 3 mph 1034.9mb 24f
3:20am 2 3 mph 1034.9mb 24f
3:10am 2 5 mph 1034.9mb 24f
3:00am 2 3 mph 1034.9mb 24f
2:50am 2 3 mph 1034.9mb 24f
2:40am 2 6 mph 1034.9mb 24f
2:30am 3 6 mph 1034.9mb 24f
2:20am 2 5 mph 1034.9mb 24f
2:10am 2 5 mph 1034.9mb 24f
2:00am 2 5 mph 1035.2mb 24f
1:50am 2 3 mph 1034.9mb 25f
1:40am 2 3 mph 1034.9mb 25f
1:30am 1 2 mph 1034.9mb 25f
1:20am 1 3 mph 1034.9mb 25f
1:10am 3 5 mph 1034.9mb 25f
1:00am 1 5 mph 1034.9mb 25f
12:50am 2 6 mph 1034.9mb 25f
12:40am 3 6 mph 1034.9mb 25f
12:30am 2 7 mph 1034.9mb 26f
12:20am 5 10 mph 1034.9mb 26f
12:10am 8 9 mph 1034.9mb 26f
12:00am 7 9 mph 1034.9mb 26f
Wed 03/22 11:50pm 7 9 mph 1034.9mb 26f
11:40pm 8 10 mph 1034.9mb 26f
11:30pm 6 8 mph 1035.2mb 26f
11:20pm 6 8 mph 1035.2mb 26f
11:10pm 7 9 mph 1035.2mb 26f
11:00pm 7 10 mph 1034.9mb 26f
10:50pm 7 9 mph 1034.9mb 26f
10:40pm 8 10 mph 1035.2mb 26f
10:30pm 7 9 mph 1035.2mb 26f
10:20pm 6 9 mph 1035.2mb 26f
10:10pm 8 10 mph 1035.2mb 26f
10:00pm 8 11 mph 1035.2mb 26f
9:50pm 8 11 mph 1035.2mb 26f
9:40pm 8 11 mph 1035.2mb 26f
9:30pm 9 13 mph 1035.2mb 26f
9:20pm 10 13 mph 1035.2mb 26f
9:10pm 9 11 mph 1035.2mb 26f
9:00pm 10 13 mph 1035.2mb 27f
8:50pm 9 11 mph 1035.2mb 27f
8:40pm 9 13 mph 1035.2mb 27f
8:30pm 10 13 mph 1035.2mb 27f
8:20pm 9 11 mph 1034.9mb 28f
8:10pm 9 13 mph 1034.9mb 28f
8:00pm 9 13 mph 1034.9mb 28f
7:50pm 9 11 mph 1034.9mb 29f
7:40pm 9 10 mph 1034.5mb 29f
7:30pm 8 10 mph 1034.5mb 29f
7:20pm 8 11 mph 1034.5mb 29f
7:10pm 8 10 mph 1034.9mb 29f
7:00pm 9 11 mph 1034.9mb 29f
6:50pm 9 11 mph 1034.9mb 29f
6:40pm 10 13 mph 1034.5mb 29f
6:30pm 11 14 mph 1034.5mb 29f
6:20pm 10 14 mph 1034.5mb 30f
6:10pm 11 14 mph 1034.5mb 30f
6:00pm 9 11 mph 1034.5mb 30f
5:50pm 9 11 mph 1034.5mb 30f
5:40pm 9 11 mph 1034.5mb 30f
5:30pm 9 10 mph 1034.5mb 30f
5:20pm 9 11 mph 1034.5mb 30f
5:10pm 9 13 mph 1034.5mb 30f
5:00pm 10 11 mph 1034.5mb 30f
4:50pm 8 11 mph 1034.5mb 29f
4:40pm 9 11 mph 1034.5mb 29f
4:30pm 11 13 mph 1034.5mb 29f
4:20pm 10 13 mph 1034.9mb 29f
4:10pm 9 11 mph 1034.9mb 29f
4:00pm 8 11 mph 1034.9mb 29f
3:50pm 9 11 mph 1034.9mb 28f
3:40pm 8 11 mph 1035.2mb 28f
3:30pm 9 11 mph 1034.9mb 28f
3:20pm 9 11 mph 1034.9mb 28f
3:10pm 8 11 mph 1034.9mb 28f
3:00pm 8 11 mph 1034.9mb 28f
2:50pm 8 13 mph 1034.9mb 28f
2:40pm 9 13 mph 1034.9mb 28f
2:30pm 9 14 mph 1034.9mb 28f
2:20pm 8 13 mph 1034.9mb 27f
2:10pm 10 14 mph 1034.9mb 27f
2:00pm 11 14 mph 1035.2mb 27f
1:50pm 10 13 mph 1035.2mb 27f
1:40pm 10 13 mph 1035.2mb 27f
1:30pm 9 14 mph 1035.2mb 27f
1:20pm 9 11 mph 1035.2mb 27f
1:10pm 7 14 mph 1035.2mb 27f
1:00pm 10 13 mph 1035.2mb 27f
12:50pm 9 13 mph 1035.6mb 26f
12:40pm 9 14 mph 1035.9mb 26f
12:30pm 11 13 mph 1035.9mb 26f
12:20pm 9 15 mph 1035.9mb 26f
12:10pm 10 13 mph 1035.6mb 26f
12:00pm 9 15 mph 1035.6mb 26f
11:50am 15 16 mph 1035.6mb 26f
11:40am 10 18 mph 1035.9mb 25f
11:30am 13 17 mph 1035.9mb 25f
11:20am 14 16 mph 1035.6mb 25f
11:10am 10 17 mph 1035.6mb 25f
11:00am 15 29 mph 1035.2mb 25f
10:50am 14 21 mph 1035.2mb 25f
10:40am 16 18 mph 1035.2mb 25f
10:30am 14 21 mph 1035.2mb 25f
10:20am 16 21 mph 1035.2mb 25f
10:10am 17 20 mph 1034.9mb 25f
10:00am 15 18 mph 1034.9mb 25f
9:50am 13 18 mph 1034.9mb 25f
9:40am 16 22 mph 1034.5mb 25f
9:30am 18 24 mph 1034.5mb 25f
9:20am 22 24 mph 1034.5mb 25f
9:10am 20 25 mph 1034.2mb 24f
9:00am 17 22 mph 1034.2mb 24f
8:50am 18 22 mph 1034.2mb 24f
8:40am 16 23 mph 1033.9mb 24f
8:30am 17 21 mph 1033.9mb 24f
8:20am 11 17 mph 1033.9mb 24f
8:10am 10 16 mph 1033.9mb 24f
8:00am 9 21 mph 1033.5mb 24f
7:50am 13 17 mph 1033.2mb 23f
7:40am 10 17 mph 1033.2mb 23f
7:30am 9 16 mph 1033.2mb 23f
7:20am 8 14 mph 1032.8mb 23f
7:10am 9 15 mph 1032.8mb 22f
7:00am 10 15 mph 1032.5mb 22f
6:50am 10 14 mph 1032.5mb 22f
6:40am 8 14 mph 1031.8mb 22f
6:30am 8 14 mph 1031.8mb 22f
6:20am 10 15 mph 1031.8mb 22f
6:10am 10 15 mph 1031.5mb 22f
6:00am 10 15 mph 1031.5mb 22f
5:50am 9 15 mph 1031.5mb 22f
5:40am 7 16 mph 1031.2mb 22f
5:30am 11 17 mph 1031.2mb 22f
5:20am 11 17 mph 1030.8mb 22f
5:10am 11 17 mph 1030.8mb 22f
5:00am 8 20 mph 1030.8mb 22f
4:50am 14 20 mph 1030.8mb 22f
4:40am 9 17 mph 1030.5mb 23f
4:30am 10 16 mph 1030.5mb 22f
4:20am 11 20 mph 1030.5mb 23f
4:10am 10 18 mph 1030.1mb 23f
4:00am 10 20 mph 1029.8mb 23f
3:50am 13 21 mph 1029.8mb 23f
3:40am 13 18 mph 1029.5mb 23f
3:30am 15 22 mph 1029.8mb 23f
3:20am 15 22 mph 1029.5mb 23f
3:10am 10 23 mph 1029.5mb 24f
3:00am 14 22 mph 1029.5mb 24f
2:50am 11 23 mph 1029.1mb 24f
2:40am 16 22 mph 1029.1mb 24f
2:30am 15 24 mph 1029.1mb 24f
2:20am 14 21 mph 1028.8mb 24f
2:10am 10 20 mph 1028.8mb 25f
2:00am 11 22 mph 1028.4mb 25f
1:50am 15 20 mph 1028.4mb 25f
1:40am 16 24 mph 1028.1mb 25f
1:30am 10 25 mph 1028.1mb 25f
1:20am 20 25 mph 1027.8mb 25f
1:10am 11 23 mph 1027.8mb 25f
1:00am 17 25 mph 1027.8mb 25f
12:50am 17 26 mph 1027.4mb 26f
12:40am 16
mph
1027.1mb 27f
12:30am 28 31 mph 1027.1mb 27f
12:26am 15 30 mph 1026.1mb 27f
12:20am 17 29 mph 1026.8mb 27f
12:10am 21 30 mph 1026.4mb 27f
12:00am 17 28 mph 1026.4mb 28f
Tue 03/21 11:50pm 18 29 mph 1026.1mb 28f
11:40pm 24 30 mph 1025.7mb 29f
11:30pm 23 31 mph 1025.4mb 29f
11:20pm 17 29 mph 1025.1mb 29f
11:19pm 14 29 mph 1025.1mb 29f
11:10pm 14 23 mph 1024.7mb 30f
11:00pm 16 23 mph 1024.7mb 30f
10:50pm 17 26 mph 1024.7mb 30f
10:40pm 16 24 mph 1024.7mb 30f
10:30pm 17 24 mph 1024.4mb 31f
10:20pm 10 18 mph 1024mb 31f
10:10pm 15 24 mph 1024mb 31f
10:00pm 11 24 mph 1024mb 31f
9:50pm 15 22 mph 1023.7mb 31f
9:40pm 14 25 mph 1023.7mb 31f
9:30pm 16 26 mph 1023.7mb 32f
9:20pm 18 29 mph 1023.7mb 32f
9:10pm 11 28 mph 1023.4mb 32f
9:00pm 21 29 mph 1023.4mb 33f
8:50pm 20 28 mph 1023mb 33f
8:40pm 17 24 mph 1022.7mb 34f
8:30pm 17 26 mph 1022.7mb 34f
8:20pm 17 30 mph 1022.4mb 34f
8:13pm 21 30 mph 1022mb 34f
8:10pm 18 26 mph 1022.4mb 34f
8:00pm 21 29 mph 1022mb 35f
7:50pm 18 30 mph 1021.7mb 35f
7:40pm 21 26 mph 1021.3mb 36f
7:30pm 14 24 mph 1021.3mb 37f
7:20pm 10 22 mph 1021mb 37f
7:10pm 17 28 mph 1021mb 37f
7:00pm 17 31 mph 1020.7mb 37f
6:50pm 16 26 mph 1020.3mb 38f
6:40pm 24 32 mph 1020mb 39f
6:30pm 24 30 mph 1019.6mb 40f
6:20pm 20 34 mph 1019.3mb 41f
6:10pm 21 32 mph 1019mb 42f
6:00pm 23 31 mph 1018.6mb 43f
5:57pm 23 30 mph 1018.6mb 44f
5:50pm 23 28 mph 1018.3mb 46f
5:40pm 15 24 mph 1017.9mb 49f
5:30pm 10 20 mph 1017.6mb 50f
5:20pm 14 23 mph 1017.6mb 51f
5:10pm 13 22 mph 1017.3mb 50f
5:00pm 14 22 mph 1017.3mb 51f
4:50pm 13 24 mph 1017.3mb 51f
4:40pm 15 22 mph 1016.9mb 51f
4:30pm 14 23 mph 1016.9mb 51f
4:20pm 13 26 mph 1016.9mb 52f
4:10pm 13 23 mph 1016.6mb 52f
4:00pm 10 20 mph 1016.3mb 52f
3:50pm 15 22 mph 1016.3mb 52f
3:40pm 15 23 mph 1016.3mb 53f
3:30pm 11 23 mph 1016.3mb 53f
3:20pm 16 24 mph 1016.3mb 53f
3:10pm 14 20 mph 1015.9mb 53f
3:00pm 14 21 mph 1016.3mb 53f
2:50pm 15 21 mph 1015.9mb 52f
2:40pm 14 21 mph 1015.9mb 53f
2:30pm 14 20 mph 1016.3mb 53f
2:20pm 17 28 mph 1015.9mb 53f
2:10pm 17 21 mph 1016.3mb 53f
2:00pm 11 22 mph 1016.3mb 53f
1:50pm 13 24 mph 1016.3mb 53f
1:40pm 16 24 mph 1016.3mb 54f
1:30pm 13 25 mph 1016.6mb 54f
1:20pm 14 23 mph 1016.6mb 55f
1:10pm 11 21 mph 1016.6mb 54f
1:00pm 11 21 mph 1016.9mb 54f
12:50pm 13 23 mph 1016.9mb 55f
12:40pm 11 24 mph 1016.9mb 54f
12:30pm 11 25 mph 1016.9mb 54f
12:20pm 14 18 mph 1016.9mb 54f
12:10pm 13 18 mph 1016.9mb 53f
12:00pm 10 17 mph 1017.3mb 53f
11:50am 13 17 mph 1017.3mb 53f
11:40am 10 20 mph 1017.6mb 53f
11:30am 13 23 mph 1017.6mb 52f
11:20am 13 18 mph 1017.6mb 51f
11:10am 9 15 mph 1017.9mb 51f
11:00am 6 9 mph 1017.9mb 46f
10:50am 8 10 mph 1017.9mb 43f
10:40am 7 11 mph 1018.3mb 43f
10:30am 9 10 mph 1018.3mb 45f
10:20am 3 8 mph 1018.3mb 44f
10:10am 2 7 mph 1018.3mb 43f
10:00am 6 9 mph 1018.6mb 40f
9:50am 8 9 mph 1018.6mb 42f
9:40am 5 6 mph 1019mb 42f
9:30am 1 6 mph 1018.6mb 44f
9:20am 1 2 mph 1018.6mb 47f
9:10am 1 3 mph 1018.6mb 44f
9:00am 1 2 mph 1018.6mb 42f
8:50am 2 6 mph 1018.6mb 41f
8:40am 5 6 mph 1018.6mb 40f
8:30am 5
mph
1018.6mb 39f
8:20am 3 6 mph 1018.6mb 38f
8:10am 3 6 mph 1018.6mb 37f
8:00am 5 7 mph 1018.3mb 36f
7:50am 3 6 mph 1018.3mb 36f
7:40am 3 5 mph 1017.9mb 35f
7:30am 3 6 mph 1017.9mb 35f
7:20am 5 6 mph 1017.9mb 35f
7:10am 3 5 mph 1017.9mb 35f
7:00am 5 7 mph 1017.9mb 36f
6:50am 6 7 mph 1017.9mb 36f
6:40am 5 7 mph 1017.9mb 36f
6:30am 5 6 mph 1017.6mb 36f
6:20am 5 6 mph 1017.6mb 37f
6:10am 5 6 mph 1017.6mb 37f
6:00am 5 7 mph 1017.6mb 37f
5:50am 5 7 mph 1017.3mb 37f
5:40am 3 6 mph 1017.3mb 37f
5:30am 3 5 mph 1017.3mb 37f
5:20am 3
mph
1017.3mb 37f
5:10am 2 3 mph 1017.3mb 37f
5:00am 2 3 mph 1016.9mb 37f
4:50am  -  3 mph 1016.9mb 37f
4:40am 3 5 mph 1016.6mb 38f
4:30am 5 7 mph 1016.6mb 38f
4:20am 5 6 mph 1016.6mb 37f
4:10am 5 6 mph 1016.6mb 37f
4:00am 5 6 mph 1016.6mb 36f
3:50am 3 5 mph 1016.3mb 37f
3:40am 2
mph
1016.3mb 37f
3:30am 2 5 mph 1016.3mb 37f
3:20am 5
mph
1016.3mb 37f
3:10am 5
mph
1016.6mb 37f
3:00am 3 5 mph 1016.3mb 37f
2:50am 5
mph
1016.6mb 37f
2:40am 3 5 mph 1016.6mb 37f
2:30am 3
mph
1016.6mb 37f
2:20am 2 3 mph 1016.9mb 38f
2:10am 2 5 mph 1016.9mb 38f
2:00am 3 5 mph 1016.9mb 38f
1:50am 2 5 mph 1016.9mb 38f
1:40am 3 6 mph 1016.9mb 38f
1:30am 5 6 mph 1017.3mb 38f
1:20am 3 6 mph 1017.3mb 38f
1:10am 3 5 mph 1017.3mb 38f
1:00am 2 5 mph 1017.3mb 37f
12:50am 3 6 mph 1017.3mb 37f
12:40am 3 6 mph 1017.3mb 37f
12:30am 5 6 mph 1017.3mb 36f
12:20am 3 5 mph 1017.3mb 36f
12:10am 2 3 mph 1017.3mb 35f
12:00am 2 3 mph 1017.3mb 35f